Tracking 29487 objects as of 10-Sep-2024
HD Live streaming from Space Station
objects crossing your sky now

FENGYUN 1C DEB

Track FENGYUN 1C DEB now!
10-day predictions


NORAD ID: 31887
Int'l Code: 1999-025CKN
Perigee: 725.3 km
Apogee: 763.7 km
Inclination: 99.5 °
Period: 99.6 minutes
Semi major axis: 7115 km
RCS: 0.0075 m2 (small)
Launch date: May 10, 1999
Source: People's Republic of China (PRC)
Launch site: Taiyaun Space Center, China (TSC)

Note: This is SATELLITE DEBRIS
Your satellite tracking list
Your tracking list is empty




NASA's NSSDC Master Catalog

Two Line Element Set (TLE):
1 31887U 99025CKN 24254.40135020  .00016304  00000-0  45207-2 0  9998
2 31887  99.5437 236.9106 0026962 276.1095  83.7021 14.46421593900210
Source of the keplerian elements: AFSPC